Metropolis, IL

8:33 AM CDT on October 23, 2019 (GMT -0500)
Metropolis

Weather History for KM30 - August, 2019

Change the Weather History Date:

Monday, August 26, 2019

  Actual Average (KPAH) Record (KPAH)
Temperature  
Mean Temperature 77 °F 77 °F  
Max Temperature 84 °F 88 °F 104 °F (1943)
Min Temperature 69 °F 65 °F 52 °F (1958)
Degree Days  
Heating Degree Days 0 0  
Month to date heating degree days 0  
Since 1 June heating degree days 4  
Since 1 July heating degree days 0  
Cooling Degree Days 12 12  
Month to date cooling degree days 332  
Year to date cooling degree days 1255  
Since 1 June cooling degree days 1083  
Growing Degree Days 27 (Base 50)    
Moisture  
Dew Point 71 °F    
Average Humidity 87    
Maximum Humidity 96    
Minimum Humidity 71    
Precipitation  
Precipitation 0.03 in 0.08 in 0.79 in (2016)
Month to date precipitation 2.33  
Year to date precipitation 32.05  
Snow  
Snow 0.00 in 0.00 in 0.00 in (2002)
Month to date snowfall 0.0  
Since 1 June snowfall 0.0  
Since 1 July snowfall 0.0  
Snow Depth -    
Sea Level Pressure  
Sea Level Pressure 29.85 in    
Wind  
Wind Speed 5 mph (South)    
Max Wind Speed 13 mph    
Max Gust Speed 18 mph    
Visibility 6 miles    
Events Rain    
T = Trace of Precipitation, MM = Missing Value Source: NWS Daily Summary

Daily Weather History Graph

Daily Weather History Graph

Search for Another Location

Airport or City:

Astronomy

Aug. 26, 2019 Rise Set
Actual Time 6:20 AM CDT 7:32 PM CDT
Civil Twilight 5:53 AM CDT 7:59 PM CDT
Nautical Twilight 5:21 AM CDT 8:31 PM CDT
Astronomical Twilight 4:47 AM CDT 9:04 PM CDT
Moon 1:50 AM CDT (8/26) 4:50 PM CDT (8/26)
Length of Visible Light 14h 05m
Length of Day
13h 12m
Waning Crescent, 19% of the Moon is Illuminated
Aug 26
Waning Crescent
Aug 30
New
Sep 5
First Quarter
Sep 13
Full
Sep 21
Last Quarter

Hourly Weather History & Observations

Time (CDT) Temp. Heat Index Dew Point Humidity Pressure Visibility Wind Dir Wind Speed Gust Speed Precip Events Conditions
12:15 AM 72.7 °F - 70.7 °F 93% 29.89 in 7.0 mi South 4.6 mph - N/A Rain Light Rain
12:35 AM 72.7 °F - 70.5 °F 93% 29.89 in 7.0 mi South 3.5 mph - N/A   Overcast
12:55 AM 72.5 °F - 70.2 °F 92% 29.88 in 7.0 mi Calm Calm - N/A   Mostly Cloudy
1:15 AM 72.3 °F - 70.3 °F 93% 29.88 in 5.0 mi Calm Calm - N/A   Mostly Cloudy
2:15 AM 72.5 °F - 70.0 °F 92% 29.88 in 5.0 mi SSE 3.5 mph - N/A   Overcast
2:35 AM 72.5 °F - 70.0 °F 92% 29.88 in 5.0 mi South 4.6 mph - N/A   Overcast
2:55 AM 72.5 °F - 69.8 °F 91% 29.88 in 7.0 mi South 6.9 mph - N/A   Overcast
3:15 AM 72.5 °F - 70.0 °F 92% 29.87 in 7.0 mi South 8.1 mph - N/A   Overcast
3:35 AM 72.5 °F - 70.2 °F 92% 29.87 in 10.0 mi South 4.6 mph - N/A Rain Light Rain
3:55 AM 72.5 °F - 70.2 °F 92% 29.86 in 7.0 mi South 5.8 mph - N/A Rain Light Rain
4:15 AM 72.5 °F - 70.3 °F 93% 29.87 in 7.0 mi South 4.6 mph - N/A   Overcast
4:35 AM 72.5 °F - 70.5 °F 93% 29.86 in 10.0 mi South 5.8 mph - N/A Rain Light Rain
4:55 AM 72.5 °F - 70.7 °F 94% 29.86 in 10.0 mi South 5.8 mph - N/A Rain Light Rain
5:15 AM 72.5 °F - 70.7 °F 94% 29.86 in 5.0 mi South 4.6 mph - N/A   Overcast
5:35 AM 72.5 °F - 70.7 °F 94% 29.86 in 5.0 mi South 5.8 mph - N/A   Overcast
5:55 AM 72.5 °F - 70.7 °F 94% 29.86 in 5.0 mi South 5.8 mph - N/A   Overcast
6:15 AM 72.5 °F - 70.7 °F 94% 29.87 in 5.0 mi South 5.8 mph - N/A   Overcast
6:35 AM 72.5 °F - 70.7 °F 94% 29.87 in 5.0 mi South 6.9 mph - N/A   Overcast
6:55 AM 72.5 °F - 70.9 °F 95% 29.87 in 4.0 mi South 4.6 mph - N/A   Overcast
7:15 AM 72.5 °F - 70.9 °F 95% 29.87 in 7.0 mi South 3.5 mph - N/A Rain Light Rain
7:35 AM 72.5 °F - 71.1 °F 95% 29.88 in 5.0 mi SSE 3.5 mph - N/A Rain Rain
7:55 AM 72.5 °F - 71.2 °F 96% 29.88 in 4.0 mi South 5.8 mph - N/A Rain Rain
8:15 AM 72.7 °F - 71.6 °F 96% 29.88 in 5.0 mi South 4.6 mph - N/A Rain Rain
8:35 AM 73.0 °F - 71.6 °F 95% 29.87 in 5.0 mi South 6.9 mph - N/A Rain Rain
8:55 AM 74.7 °F - 72.5 °F 93% 29.87 in 5.0 mi South 6.9 mph - N/A Rain Heavy Rain
9:15 AM 75.0 °F - 72.1 °F 91% 29.87 in 4.0 mi South 6.9 mph - N/A Rain Rain
9:35 AM 75.4 °F - 72.5 °F 91% 29.86 in 5.0 mi South 4.6 mph - N/A Rain Heavy Rain
10:15 AM 76.5 °F - 72.3 °F 87% 29.87 in 5.0 mi South 6.9 mph - N/A Rain Rain
10:55 AM 76.5 °F - 72.5 °F 87% 29.88 in 7.0 mi SW 5.8 mph - N/A Rain Rain
11:15 AM 77.0 °F - 72.7 °F 86% 29.88 in 7.0 mi South 8.1 mph - N/A Rain Rain
11:35 AM 77.0 °F - 72.7 °F 86% 29.87 in 5.0 mi South 5.8 mph - N/A Rain Rain
11:55 AM 77.9 °F - 72.9 °F 84% 29.87 in 4.0 mi South 6.9 mph - N/A Rain Rain
12:15 PM 79.0 °F - 73.4 °F 83% 29.87 in 5.0 mi SSW 6.9 mph - N/A Rain Rain
12:35 PM 79.2 °F - 73.2 °F 82% 29.87 in 7.0 mi South 10.4 mph - N/A Rain Rain
12:55 PM 78.8 °F - 72.9 °F 82% 29.87 in 7.0 mi South 5.8 mph - N/A Rain Rain
1:15 PM 81.1 °F 86.8 °F 74.5 °F 80% 29.86 in 7.0 mi South 4.6 mph - N/A Rain Heavy Rain
1:35 PM 82.4 °F 88.4 °F 73.9 °F 75% 29.86 in 7.0 mi South 6.9 mph - N/A Rain Rain
1:55 PM 81.1 °F 86.4 °F 73.8 °F 78% 29.85 in 7.0 mi South 5.8 mph - N/A Rain Heavy Rain
2:15 PM 82.6 °F 88.6 °F 73.6 °F 74% 29.85 in 7.0 mi South 5.8 mph - N/A Rain Heavy Rain
2:35 PM 81.9 °F 87.0 °F 73.0 °F 74% 29.85 in 5.0 mi SSW 6.9 mph - N/A Rain Rain
2:55 PM 82.2 °F 88.5 °F 74.3 °F 77% 29.84 in 7.0 mi South 4.6 mph - N/A Rain Heavy Rain
3:15 PM 82.0 °F 88.1 °F 74.1 °F 77% 29.83 in 7.0 mi South 6.9 mph - N/A Rain Heavy Rain
3:35 PM 82.6 °F 88.8 °F 73.8 °F 75% 29.83 in 7.0 mi South 6.9 mph - N/A Rain Rain
3:55 PM 82.4 °F 88.4 °F 73.9 °F 75% 29.83 in 5.0 mi South 5.8 mph - N/A Rain Heavy Rain
4:15 PM 83.5 °F 90.3 °F 74.1 °F 73% 29.82 in 5.0 mi SSW 8.1 mph - N/A Rain Heavy Rain
4:35 PM 84.7 °F 93.2 °F 75.2 °F 73% 29.83 in 7.0 mi SW 8.1 mph - N/A Rain Heavy Rain
4:55 PM 84.0 °F 90.8 °F 73.6 °F 71% 29.83 in 7.0 mi WSW 4.6 mph - N/A Rain Heavy Rain
5:15 PM 84.0 °F 91.2 °F 74.3 °F 72% 29.83 in 5.0 mi SW 6.9 mph - N/A Rain Heavy Rain
5:35 PM 83.1 °F 89.5 °F 73.8 °F 73% 29.83 in 5.0 mi South 5.8 mph - N/A Rain Rain
5:55 PM 81.7 °F 87.8 °F 74.5 °F 79% 29.82 in 5.0 mi South 5.8 mph - N/A Rain Rain
6:15 PM 81.5 °F 87.2 °F 74.1 °F 78% 29.84 in 7.0 mi SW 6.9 mph - N/A Rain Rain
6:35 PM 81.3 °F 86.8 °F 73.9 °F 78% 29.83 in 7.0 mi SSW 6.9 mph - N/A Rain Light Rain
6:55 PM 80.4 °F 84.8 °F 73.0 °F 78% 29.82 in 7.0 mi West 12.7 mph 18.4 mph N/A Rain Light Rain
7:15 PM 73.8 °F - 68.5 °F 84% 29.83 in 5.0 mi SSW 6.9 mph - N/A   Haze
7:35 PM 72.5 °F - 68.5 °F 87% 29.83 in 10.0 mi SSW 5.8 mph - 0.02 in Rain Rain
7:55 PM 71.6 °F - 69.1 °F 92% 29.81 in 10.0 mi South 9.2 mph - 0.03 in Rain Light Rain
8:15 PM 71.8 °F - 68.9 °F 91% 29.80 in 10.0 mi SSE 6.9 mph - N/A Rain Light Rain
8:35 PM 72.1 °F - 69.8 °F 92% 29.78 in 7.0 mi South 5.8 mph - N/A Rain Light Rain
8:55 PM 72.1 °F - 69.3 °F 91% 29.74 in 7.0 mi South 9.2 mph 18.4 mph N/A   Clear
9:15 PM 72.5 °F - 69.3 °F 90% 29.83 in 7.0 mi West 10.4 mph - N/A   Clear
9:35 PM 72.5 °F - 68.9 °F 88% 29.84 in 7.0 mi WSW 8.1 mph - N/A   Scattered Clouds
9:55 PM 72.0 °F - 68.9 °F 90% 29.85 in 4.0 mi NNW 5.8 mph - N/A   Clear
10:15 PM 71.6 °F - 68.9 °F 91% 29.86 in 5.0 mi NW 6.9 mph - N/A   Clear
10:35 PM 71.1 °F - 68.5 °F 92% 29.88 in 5.0 mi NNW 4.6 mph - N/A   Scattered Clouds
10:55 PM 70.5 °F - 68.4 °F 93% 29.88 in 5.0 mi Calm Calm - N/A   Mostly Cloudy
11:15 PM 70.2 °F - 68.4 °F 94% 29.87 in 5.0 mi Calm Calm - N/A   Overcast
11:55 PM 69.8 °F - 68.4 °F 95% 29.85 in 5.0 mi Calm Calm - N/A   Clear